Ary, KY

4:59 AM EST on February 12, 2016 (GMT -0500)
Carroll | | Change Station
CLOSE
Current Station
Airport
Location: Jackson,
Elevation: 1381 ft
Nearby Weather Stations
Active Advisory: Winter Weather Advisory

Elev 1381 ft 37.59 °N, 83.31 °W | Updated 6 minutes ago

Overcast
Overcast
21 °F
Feels Like 16 °F
N
4
Wind Variable Wind from ENE

Today
High -- | Low -- °F
--% Chance of Precip.
Yesterday
High -- | Low -- °F
Precip. -- in
Pressure 30.19 in
Visibility 10.0 miles
Clouds Overcast 7500 ft
Windchill 16 °F
Dew Point 8 °F
Humidity 57%
Rainfall 0.00 in
Snow Depth Not available.
7:25 AM 6:08 PM
Waxing Crescent, 19% visible
METAR KJKL 120953Z AUTO 06003KT 10SM OVC075 M06/M13 A3015 RMK AO2 SLP224 T10611133
Pressure 30.19 in
Visibility 10.0 miles
Clouds Overcast 7500 ft
Windchill 16 °F
Dew Point 8 °F
Humidity 57%
Rainfall 0.00 in
Snow Depth Not available.
7:25 AM 6:08 PM
Waxing Crescent, 19% visible
METAR KJKL 120953Z AUTO 06003KT 10SM OVC075 M06/M13 A3015 RMK AO2 SLP224 T10611133

10-Day Weather Forecast

Almanac

Astronomy

Feb. 12, 2016 Rise Set
Actual Time
Civil Twilight
Nautical Twilight
Astronomical Twilight
Moon
Length of Visible Light
Length of Day
Tomorrow will be .
, % of the Moon is Illuminated

Today's Extremes

State Highs State Lows

Community

WunderPhotos

Upload Photos

1,892,286 photos uploaded!

WunderBlog® & News

Nearby

Air Quality

  Air Quality AQ Index Pollutant
Not available.

Snow Depth

Station Depth Elevation

Earthquake Activity

City Distance Mag. Time & Date
Minimum magnitude displayed is 2.5.

Coastal Water Temperatures

Place Temperature

Stations

Nearby Weather Stations

Station Location Temp. Windchill Dew Point Humidity Wind Precip. Elev Updated Type
                   

Watches & Warnings

Winter Weather Advisory
Issued: 10:57 PM EST Feb. 11, 2016 – National Weather Service

... Winter Weather Advisory remains in effect from 5 am to noon
EST Friday...

* expect snow showers to develop around dawn on Friday and then
taper to scattered snow showers by midday on Friday.

* Total snow accumulations of around an inch are expected for most
of the advisory area... with locally up to an inch and a half near
the Tennessee and Virginia borders.

* Reduced visibilities are anticipated in heavier snow showers.

* Plan on slippery Road conditions on Friday morning... including
during the morning commute on Friday.

Precautionary/preparedness actions...

A Winter Weather Advisory for snow means periods of snow will
cause primarily travel difficulties. Be prepared for snow covered
roads and limited visibilities... and use caution while driving.


Greif/jp